Time,TemperatureF,DewpointF,PressureIn,WindDirection,WindDirectionDegrees,WindSpeedMPH,WindSpeedGustMPH,Humidity,HourlyPrecipIn,Conditions,Clouds,dailyrainin,SolarRadiationWatts/m^2,SoftwareType,DateUTC
2013-02-25 00:02:00,47.4,28.7,30.20,WNW,284,0.0,0.0,48,0.00,CLR,,0.00,0.0,WeatherDisplay:10.37,2013-02-25 08:02:00,
2013-02-25 00:07:00,47.3,28.6,30.21,WNW,284,0.0,0.0,48,0.00,CLR,,0.00,0.0,WeatherDisplay:10.37,2013-02-25 08:07:00,
2013-02-25 00:12:00,47.1,28.9,30.21,WNW,284,0.0,0.0,49,0.00,CLR,,0.00,0.0,WeatherDisplay:10.37,2013-02-25 08:12:00,
2013-02-25 00:17:00,46.9,28.7,30.21,WNW,284,0.0,0.0,49,0.00,CLR,,0.00,0.0,WeatherDisplay:10.37,2013-02-25 08:17:00,
2013-02-25 00:22:00,46.6,28.4,30.21,WNW,284,2.3,2.3,49,0.00,CLR,,0.00,0.0,WeatherDisplay:10.37,2013-02-25 08:22:00,
2013-02-25 00:27:00,46.5,28.8,30.21,NNW,339,3.5,3.5,50,0.00,CLR,,0.00,0.0,WeatherDisplay:10.37,2013-02-25 08:27:00,
2013-02-25 00:32:00,46.5,28.8,30.21,NNW,345,1.1,1.1,50,0.00,CLR,,0.00,0.0,WeatherDisplay:10.37,2013-02-25 08:32:00,
2013-02-25 00:37:00,46.4,28.8,30.21,NNW,345,0.0,0.0,50,0.00,CLR,,0.00,0.0,WeatherDisplay:10.37,2013-02-25 08:37:00,
2013-02-25 00:42:00,46.3,28.7,30.22,NNW,345,0.0,0.0,50,0.00,CLR,,0.00,0.0,WeatherDisplay:10.37,2013-02-25 08:42:00,
2013-02-25 00:47:00,46.1,28.5,30.22,NNW,345,0.0,0.0,50,0.00,CLR,,0.00,0.0,WeatherDisplay:10.37,2013-02-25 08:47:00,
2013-02-25 00:52:00,46.0,28.9,30.22,NNW,345,0.0,0.0,51,0.00,CLR,,0.00,0.0,WeatherDisplay:10.37,2013-02-25 08:52:00,
2013-02-25 00:57:00,45.8,28.7,30.22,NNW,345,0.0,0.0,51,0.00,CLR,,0.00,0.0,WeatherDisplay:10.37,2013-02-25 08:57:00,
2013-02-25 01:02:00,45.6,29.0,30.22,NNW,345,2.3,2.3,52,0.00,CLR,,0.00,0.0,WeatherDisplay:10.37,2013-02-25 09:02:00,
2013-02-25 01:07:00,45.5,28.9,30.22,NNW,345,0.0,0.0,52,0.00,CLR,,0.00,0.0,WeatherDisplay:10.37,2013-02-25 09:07:00,
2013-02-25 01:12:00,45.5,28.9,30.22,NNW,345,1.1,0.0,52,0.00,CLR,,0.00,0.0,WeatherDisplay:10.37,2013-02-25 09:12:00,
2013-02-25 01:17:00,45.7,29.1,30.22,NNW,345,0.0,0.0,52,0.00,CLR,,0.00,0.0,WeatherDisplay:10.37,2013-02-25 09:17:00,
2013-02-25 01:22:00,46.0,28.9,30.22,NNW,345,0.0,0.0,51,0.00,CLR,,0.00,0.0,WeatherDisplay:10.37,2013-02-25 09:22:00,
2013-02-25 01:27:00,46.0,28.9,30.22,NNW,345,0.0,0.0,51,0.00,CLR,,0.00,0.0,WeatherDisplay:10.37,2013-02-25 09:27:00,
2013-02-25 01:32:00,45.9,28.8,30.22,NNW,345,0.0,0.0,51,0.00,CLR,,0.00,0.0,WeatherDisplay:10.37,2013-02-25 09:32:00,
2013-02-25 01:37:00,45.6,29.0,30.22,NNW,345,1.0,1.0,52,0.00,CLR,,0.00,0.0,WeatherDisplay:10.37,2013-02-25 09:37:00,
2013-02-25 01:42:00,45.3,29.2,30.22,NNW,345,0.0,0.0,53,0.00,CLR,,0.00,0.0,WeatherDisplay:10.37,2013-02-25 09:42:00,
2013-02-25 01:47:00,45.2,29.5,30.22,NNW,345,0.0,0.0,54,0.00,CLR,,0.00,0.0,WeatherDisplay:10.37,2013-02-25 09:47:00,
2013-02-25 01:52:00,45.0,29.3,30.22,NNW,345,0.0,0.0,54,0.00,CLR,,0.00,0.0,WeatherDisplay:10.37,2013-02-25 09:52:00,
2013-02-25 01:57:00,45.1,29.4,30.22,NNW,345,1.1,1.1,54,0.00,CLR,,0.00,0.0,WeatherDisplay:10.37,2013-02-25 09:57:00,
2013-02-25 02:02:00,45.1,29.4,30.22,NNW,345,1.1,0.0,54,0.00,CLR,,0.00,0.0,WeatherDisplay:10.37,2013-02-25 10:02:00,
2013-02-25 02:07:00,45.0,29.8,30.22,NNW,345,2.3,2.3,55,0.00,CLR,,0.00,0.0,WeatherDisplay:10.37,2013-02-25 10:07:00,
2013-02-25 02:12:00,44.6,29.9,30.21,NNW,345,1.1,1.1,56,0.00,CLR,,0.00,0.0,WeatherDisplay:10.37,2013-02-25 10:12:00,
2013-02-25 02:17:00,44.3,30.0,30.21,NNW,346,3.0,3.0,57,0.00,CLR,,0.00,0.0,WeatherDisplay:10.37,2013-02-25 10:17:00,
2013-02-25 02:22:00,44.5,29.8,30.21,NNW,346,2.0,2.0,56,0.00,CLR,,0.00,0.0,WeatherDisplay:10.37,2013-02-25 10:22:00,
2013-02-25 02:27:00,44.5,29.8,30.21,NNW,346,2.3,2.3,56,0.00,CLR,,0.00,0.0,WeatherDisplay:10.37,2013-02-25 10:27:00,
2013-02-25 02:32:00,44.6,29.4,30.21,NNW,346,1.1,0.0,55,0.00,CLR,,0.00,0.0,WeatherDisplay:10.37,2013-02-25 10:32:00,
2013-02-25 02:37:00,45.0,29.3,30.20,NNW,346,2.3,2.3,54,0.00,CLR,,0.00,0.0,WeatherDisplay:10.37,2013-02-25 10:37:00,
2013-02-25 02:42:00,45.1,29.0,30.20,NNE,15,3.5,3.5,53,0.00,CLR,,0.00,0.0,WeatherDisplay:10.37,2013-02-25 10:42:00,
2013-02-25 02:47:00,45.1,29.0,30.20,NNE,14,2.3,2.3,53,0.00,CLR,,0.00,0.0,WeatherDisplay:10.37,2013-02-25 10:47:00,
2013-02-25 02:52:00,45.2,29.1,30.20,NNE,14,0.0,0.0,53,0.00,CLR,,0.00,0.0,WeatherDisplay:10.37,2013-02-25 10:52:00,
2013-02-25 02:57:00,45.1,29.0,30.20,NNE,14,0.0,0.0,53,0.00,CLR,,0.00,0.0,WeatherDisplay:10.37,2013-02-25 10:57:00,
2013-02-25 03:02:00,45.0,29.3,30.20,NNE,14,0.0,0.0,54,0.00,CLR,,0.00,0.0,WeatherDisplay:10.37,2013-02-25 11:02:00,
2013-02-25 03:07:00,44.7,29.5,30.20,NNE,14,1.1,1.1,55,0.00,CLR,,0.00,0.0,WeatherDisplay:10.37,2013-02-25 11:07:00,
2013-02-25 03:12:00,44.8,29.6,30.21,NNE,14,1.1,1.1,55,0.00,CLR,,0.00,0.0,WeatherDisplay:10.37,2013-02-25 11:12:00,
2013-02-25 03:17:00,44.8,29.6,30.21,NNE,14,0.0,0.0,55,0.00,CLR,,0.00,0.0,WeatherDisplay:10.37,2013-02-25 11:17:00,
2013-02-25 03:22:00,44.5,29.8,30.21,NNE,14,1.1,0.0,56,0.00,CLR,,0.00,0.0,WeatherDisplay:10.37,2013-02-25 11:22:00,
2013-02-25 03:27:00,44.2,29.9,30.21,NNE,14,1.1,1.1,57,0.00,CLR,,0.00,0.0,WeatherDisplay:10.37,2013-02-25 11:27:00,
2013-02-25 03:32:00,44.0,30.2,30.21,NNE,20,1.1,0.0,58,0.00,CLR,,0.00,0.0,WeatherDisplay:10.37,2013-02-25 11:32:00,
2013-02-25 03:37:00,43.8,30.0,30.21,NNE,20,1.1,1.1,58,0.00,CLR,,0.00,0.0,WeatherDisplay:10.37,2013-02-25 11:37:00,
2013-02-25 03:42:00,43.5,30.1,30.21,NNE,20,0.0,0.0,59,0.00,CLR,,0.00,0.0,WeatherDisplay:10.37,2013-02-25 11:42:00,
2013-02-25 03:47:00,43.1,30.1,30.21,NNE,20,2.3,2.3,60,0.00,CLR,,0.00,0.0,WeatherDisplay:10.37,2013-02-25 11:47:00,
2013-02-25 03:52:00,42.5,30.0,30.21,NNE,20,0.0,0.0,61,0.00,CLR,,0.00,0.0,WeatherDisplay:10.37,2013-02-25 11:52:00,
2013-02-25 03:57:00,42.3,29.8,30.21,NNE,20,1.1,1.1,61,0.00,CLR,,0.00,0.0,WeatherDisplay:10.37,2013-02-25 11:57:00,
2013-02-25 04:02:00,42.3,29.8,30.21,NNE,20,2.0,2.0,61,0.00,CLR,,0.00,0.0,WeatherDisplay:10.37,2013-02-25 12:02:00,
2013-02-25 04:07:00,42.2,30.1,30.21,NNE,25,2.3,2.3,62,0.00,CLR,,0.00,0.0,WeatherDisplay:10.37,2013-02-25 12:07:00,
2013-02-25 04:12:00,41.9,29.8,30.21,NE,46,1.1,1.1,62,0.00,CLR,,0.00,0.0,WeatherDisplay:10.37,2013-02-25 12:12:00,
2013-02-25 04:17:00,41.8,30.1,30.21,NE,46,1.1,1.1,63,0.00,CLR,,0.00,0.0,WeatherDisplay:10.37,2013-02-25 12:17:00,
2013-02-25 04:22:00,42.3,34.3,30.20,NE,46,0.0,0.0,73,0.00,CLR,,0.00,0.0,WeatherDisplay:10.37,2013-02-25 12:22:00,
2013-02-25 04:27:00,42.6,31.7,30.20,NE,46,1.1,0.0,65,0.00,CLR,,0.00,0.0,WeatherDisplay:10.37,2013-02-25 12:27:00,
2013-02-25 04:32:00,44.0,38.9,30.21,NE,46,0.0,0.0,82,0.00,CLR,,0.00,0.0,WeatherDisplay:10.37,2013-02-25 12:32:00,
2013-02-25 04:37:00,43.3,32.3,30.21,NE,46,0.0,0.0,65,0.00,CLR,,0.00,0.0,WeatherDisplay:10.37,2013-02-25 12:37:00,
2013-02-25 04:42:00,42.5,30.4,30.21,NE,46,0.0,0.0,62,0.00,CLR,,0.00,0.0,WeatherDisplay:10.37,2013-02-25 12:42:00,
2013-02-25 04:47:00,42.4,32.2,30.21,NE,46,0.0,0.0,67,0.00,CLR,,0.00,0.0,WeatherDisplay:10.37,2013-02-25 12:47:00,
2013-02-25 04:52:00,42.0,30.3,30.22,NE,46,0.0,0.0,63,0.00,CLR,,0.00,0.0,WeatherDisplay:10.37,2013-02-25 12:52:00,
2013-02-25 04:57:00,41.7,29.6,30.22,NE,46,0.0,0.0,62,0.00,CLR,,0.00,0.0,WeatherDisplay:10.37,2013-02-25 12:57:00,
2013-02-25 05:03:00,41.4,29.3,30.22,NE,46,0.0,0.0,62,0.00,CLR,,0.00,0.0,WeatherDisplay:10.37,2013-02-25 13:03:00,
2013-02-25 05:08:00,41.2,29.5,30.22,NE,46,0.0,0.0,63,0.00,CLR,,0.00,0.0,WeatherDisplay:10.37,2013-02-25 13:08:00,
2013-02-25 05:13:00,41.1,29.5,30.22,NE,46,0.0,0.0,63,0.00,CLR,,0.00,0.0,WeatherDisplay:10.37,2013-02-25 13:13:00,
2013-02-25 05:18:00,41.3,29.6,30.22,NE,46,1.1,0.0,63,0.00,CLR,,0.00,0.0,WeatherDisplay:10.37,2013-02-25 13:18:00,
2013-02-25 05:23:00,41.3,29.3,30.22,NE,46,0.0,0.0,62,0.00,CLR,,0.00,0.0,WeatherDisplay:10.37,2013-02-25 13:23:00,
2013-02-25 05:28:00,41.2,28.8,30.22,NE,46,0.0,0.0,61,0.00,CLR,,0.00,0.0,WeatherDisplay:10.37,2013-02-25 13:28:00,
2013-02-25 05:33:00,41.0,29.0,30.21,NE,46,1.0,0.0,62,0.00,CLR,,0.00,0.0,WeatherDisplay:10.37,2013-02-25 13:33:00,
2013-02-25 05:38:00,40.9,28.9,30.21,NE,46,1.1,0.0,62,0.00,CLR,,0.00,0.0,WeatherDisplay:10.37,2013-02-25 13:38:00,
2013-02-25 05:43:00,40.7,28.7,30.21,NE,46,0.0,0.0,62,0.00,CLR,,0.00,0.0,WeatherDisplay:10.37,2013-02-25 13:43:00,
2013-02-25 05:48:00,40.9,28.9,30.21,NE,46,0.0,0.0,62,0.00,CLR,,0.00,0.0,WeatherDisplay:10.37,2013-02-25 13:48:00,
2013-02-25 05:53:00,41.0,29.0,30.21,NE,46,0.0,0.0,62,0.00,CLR,,0.00,0.0,WeatherDisplay:10.37,2013-02-25 13:53:00,
2013-02-25 05:58:00,40.7,28.7,30.21,NE,46,1.1,1.1,62,0.00,CLR,,0.00,0.0,WeatherDisplay:10.37,2013-02-25 13:58:00,
2013-02-25 06:03:00,40.6,29.0,30.21,NE,46,1.1,1.1,63,0.00,CLR,,0.00,0.0,WeatherDisplay:10.37,2013-02-25 14:03:00,
2013-02-25 06:08:00,40.5,28.9,30.21,NE,46,1.1,1.1,63,0.00,CLR,,0.00,0.0,WeatherDisplay:10.37,2013-02-25 14:08:00,
2013-02-25 06:14:00,40.6,28.6,30.21,NE,46,1.1,0.0,62,0.00,CLR,,0.00,0.0,WeatherDisplay:10.37,2013-02-25 14:14:00,
2013-02-25 06:19:00,41.5,34.8,30.22,NE,46,0.0,0.0,77,0.00,CLR,,0.00,0.0,WeatherDisplay:10.37,2013-02-25 14:19:00,
2013-02-25 06:24:00,41.5,28.2,30.22,NE,46,1.1,1.1,59,0.00,CLR,,0.00,0.0,WeatherDisplay:10.37,2013-02-25 14:24:00,
2013-02-25 06:29:00,41.5,27.8,30.22,NE,46,0.0,0.0,58,0.00,CLR,,0.00,7.0,WeatherDisplay:10.37,2013-02-25 14:29:00,
2013-02-25 06:34:00,41.6,27.5,30.22,NE,46,1.1,1.1,57,0.00,FEW,,0.00,9.0,WeatherDisplay:10.37,2013-02-25 14:34:00,
2013-02-25 06:39:00,41.7,26.7,30.22,NE,46,2.0,2.0,55,0.00,SCT,,0.00,12.0,WeatherDisplay:10.37,2013-02-25 14:39:00,
2013-02-25 06:44:00,41.9,26.0,30.22,NE,46,0.0,0.0,53,0.00,BKN,,0.00,18.0,WeatherDisplay:10.37,2013-02-25 14:44:00,
2013-02-25 06:49:00,42.3,25.9,30.22,NE,46,1.1,1.1,52,0.00,BKN,,0.00,21.0,WeatherDisplay:10.37,2013-02-25 14:49:00,
2013-02-25 06:54:00,42.9,25.5,30.22,NE,46,1.1,1.1,50,0.00,BKN,,0.00,30.0,WeatherDisplay:10.37,2013-02-25 14:54:00,
2013-02-25 06:59:00,43.8,28.7,30.22,NE,46,0.0,0.0,55,0.00,SCT,,0.00,40.0,WeatherDisplay:10.37,2013-02-25 14:59:00,
2013-02-25 07:04:00,44.2,25.7,30.22,NE,46,0.0,0.0,48,0.00,SCT,,0.00,54.0,WeatherDisplay:10.37,2013-02-25 15:04:00,
2013-02-25 07:09:00,44.8,25.8,30.22,NE,46,0.0,0.0,47,0.00,SCT,,0.00,70.0,WeatherDisplay:10.37,2013-02-25 15:09:00,
2013-02-25 07:14:00,45.2,26.7,30.22,NE,46,1.1,1.1,48,0.00,FEW,,0.00,86.0,WeatherDisplay:10.37,2013-02-25 15:14:00,
2013-02-25 07:19:00,45.6,26.5,30.22,NE,46,0.0,0.0,47,0.00,FEW,,0.00,105.0,WeatherDisplay:10.37,2013-02-25 15:19:00,
2013-02-25 07:24:00,46.9,34.6,30.23,NE,46,0.0,0.0,62,0.00,CLR,,0.00,125.0,WeatherDisplay:10.37,2013-02-25 15:24:00,
2013-02-25 07:29:00,47.5,26.6,30.22,NE,46,2.3,2.3,44,0.00,CLR,,0.00,146.0,WeatherDisplay:10.37,2013-02-25 15:29:00,
2013-02-25 07:34:00,47.8,26.4,30.23,NE,46,2.3,2.3,43,0.00,CLR,,0.00,169.0,WeatherDisplay:10.37,2013-02-25 15:34:00,
2013-02-25 07:39:00,48.1,26.6,30.23,NE,46,2.3,2.3,43,0.00,CLR,,0.00,186.0,WeatherDisplay:10.37,2013-02-25 15:39:00,
2013-02-25 07:44:00,48.4,27.5,30.23,NE,44,3.5,3.5,44,0.00,CLR,,0.00,209.0,WeatherDisplay:10.37,2013-02-25 15:44:00,
2013-02-25 07:49:00,48.4,27.5,30.23,NE,42,3.5,3.5,44,0.00,CLR,,0.00,232.0,WeatherDisplay:10.37,2013-02-25 15:49:00,
2013-02-25 07:54:00,48.6,28.2,30.23,NE,42,2.3,2.3,45,0.00,CLR,,0.00,253.0,WeatherDisplay:10.37,2013-02-25 15:54:00,
2013-02-25 07:59:00,48.7,26.6,30.23,NE,38,3.5,3.5,42,0.00,CLR,,0.00,274.0,WeatherDisplay:10.37,2013-02-25 15:59:00,
2013-02-25 08:04:00,49.3,27.7,30.23,NE,38,2.3,2.3,43,0.00,CLR,,0.00,288.0,WeatherDisplay:10.37,2013-02-25 16:04:00,
2013-02-25 08:09:00,50.3,26.9,30.24,NE,38,2.3,2.3,40,0.00,CLR,,0.00,306.0,WeatherDisplay:10.37,2013-02-25 16:09:00,
2013-02-25 08:14:00,51.0,25.0,30.23,NE,38,2.3,2.3,36,0.00,CLR,,0.00,323.0,WeatherDisplay:10.37,2013-02-25 16:14:00,
2013-02-25 08:19:00,51.5,24.7,30.23,NE,38,2.3,0.0,35,0.00,CLR,,0.00,339.0,WeatherDisplay:10.37,2013-02-25 16:19:00,
2013-02-25 08:24:00,52.3,26.1,30.23,NE,38,2.3,2.3,36,0.00,CLR,,0.00,357.0,WeatherDisplay:10.37,2013-02-25 16:24:00,
2013-02-25 08:29:00,52.8,25.2,30.23,NNE,19,3.5,3.5,34,0.00,CLR,,0.00,373.0,WeatherDisplay:10.37,2013-02-25 16:29:00,
2013-02-25 08:34:00,53.1,26.8,30.23,North,11,2.3,2.3,36,0.00,CLR,,0.00,388.0,WeatherDisplay:10.37,2013-02-25 16:34:00,
2013-02-25 08:39:00,53.4,25.7,30.22,North,9,2.0,2.0,34,0.00,CLR,,0.00,404.0,WeatherDisplay:10.37,2013-02-25 16:39:00,
2013-02-25 08:44:00,53.9,25.4,30.22,North,9,0.0,0.0,33,0.00,CLR,,0.00,418.0,WeatherDisplay:10.37,2013-02-25 16:44:00,
2013-02-25 08:49:00,54.6,25.3,30.23,North,9,2.3,2.3,32,0.00,CLR,,0.00,434.0,WeatherDisplay:10.37,2013-02-25 16:49:00,
2013-02-25 08:54:00,55.1,22.5,30.22,North,9,2.3,2.3,28,0.00,CLR,,0.00,448.0,WeatherDisplay:10.37,2013-02-25 16:54:00,
2013-02-25 08:59:00,55.8,21.4,30.22,North,9,2.3,2.3,26,0.00,CLR,,0.00,464.0,WeatherDisplay:10.37,2013-02-25 16:59:00,
2013-02-25 09:04:00,56.2,17.8,30.22,North,9,2.3,2.3,22,0.00,CLR,,0.00,480.0,WeatherDisplay:10.37,2013-02-25 17:04:00,
2013-02-25 09:09:00,57.0,20.5,30.22,North,9,1.1,0.0,24,0.00,CLR,,0.00,496.0,WeatherDisplay:10.37,2013-02-25 17:09:00,
2013-02-25 09:14:00,57.5,18.9,30.22,North,9,2.3,2.3,22,0.00,CLR,,0.00,508.0,WeatherDisplay:10.37,2013-02-25 17:14:00,
2013-02-25 09:19:00,57.8,19.1,30.21,North,5,3.5,3.5,22,0.00,CLR,,0.00,524.0,WeatherDisplay:10.37,2013-02-25 17:19:00,
2013-02-25 09:24:00,57.9,19.2,30.21,North,5,3.5,3.5,22,0.00,CLR,,0.00,534.0,WeatherDisplay:10.37,2013-02-25 17:24:00,
2013-02-25 09:29:00,58.1,18.3,30.21,North,360,3.5,3.5,21,0.00,CLR,,0.00,548.0,WeatherDisplay:10.37,2013-02-25 17:29:00,
2013-02-25 09:34:00,58.5,18.6,30.21,North,360,0.0,0.0,21,0.00,CLR,,0.00,559.0,WeatherDisplay:10.37,2013-02-25 17:34:00,
2013-02-25 09:39:00,59.2,19.2,30.21,North,360,3.0,3.0,21,0.00,CLR,,0.00,575.0,WeatherDisplay:10.37,2013-02-25 17:39:00,
2013-02-25 09:44:00,59.6,18.4,30.21,North,360,2.3,2.3,20,0.00,CLR,,0.00,587.0,WeatherDisplay:10.37,2013-02-25 17:44:00,
2013-02-25 09:49:00,60.0,19.9,30.21,North,360,3.5,3.5,21,0.00,CLR,,0.00,599.0,WeatherDisplay:10.37,2013-02-25 17:49:00,
2013-02-25 09:54:00,60.2,18.9,30.21,North,360,1.1,1.1,20,0.00,CLR,,0.00,610.0,WeatherDisplay:10.37,2013-02-25 17:54:00,
2013-02-25 09:59:00,60.8,19.4,30.21,North,360,3.5,3.5,20,0.00,CLR,,0.00,619.0,WeatherDisplay:10.37,2013-02-25 17:59:00,
2013-02-25 10:04:00,60.8,18.2,30.21,North,355,4.0,4.0,19,0.00,CLR,,0.00,633.0,WeatherDisplay:10.37,2013-02-25 18:04:00,
2013-02-25 10:09:00,60.9,19.5,30.21,North,355,3.5,3.5,20,0.00,CLR,,0.00,643.0,WeatherDisplay:10.37,2013-02-25 18:09:00,
2013-02-25 10:14:00,61.3,19.8,30.21,North,355,1.1,1.1,20,0.00,CLR,,0.00,649.0,WeatherDisplay:10.37,2013-02-25 18:14:00,
2013-02-25 10:19:00,61.8,17.8,30.21,SE,143,1.1,1.1,18,0.00,CLR,,0.00,659.0,WeatherDisplay:10.37,2013-02-25 18:19:00,
2013-02-25 10:24:00,62.2,18.1,30.20,SSW,196,3.5,3.5,18,0.00,CLR,,0.00,670.0,WeatherDisplay:10.37,2013-02-25 18:24:00,
2013-02-25 10:29:00,62.5,17.0,30.21,South,184,3.5,3.5,17,0.00,CLR,,0.00,680.0,WeatherDisplay:10.37,2013-02-25 18:29:00,
2013-02-25 10:34:00,63.1,18.9,30.20,SSW,198,3.5,3.5,18,0.00,CLR,,0.00,686.0,WeatherDisplay:10.37,2013-02-25 18:34:00,
2013-02-25 10:39:00,63.6,17.9,30.20,SSE,164,2.3,2.3,17,0.00,CLR,,0.00,693.0,WeatherDisplay:10.37,2013-02-25 18:39:00,
2013-02-25 10:44:00,64.0,18.3,30.20,West,273,3.5,3.5,17,0.00,CLR,,0.00,701.0,WeatherDisplay:10.37,2013-02-25 18:44:00,
2013-02-25 10:49:00,63.9,18.2,30.20,SW,227,3.5,3.5,17,0.00,CLR,,0.00,707.0,WeatherDisplay:10.37,2013-02-25 18:49:00,
2013-02-25 10:54:00,63.9,18.2,30.20,West,265,4.6,4.6,17,0.00,CLR,,0.00,717.0,WeatherDisplay:10.37,2013-02-25 18:54:00,
2013-02-25 10:59:00,64.0,18.3,30.20,West,269,2.3,2.3,17,0.00,CLR,,0.00,722.0,WeatherDisplay:10.37,2013-02-25 18:59:00,
2013-02-25 11:04:00,64.6,18.7,30.19,SSW,207,3.5,3.5,17,0.00,CLR,,0.00,726.0,WeatherDisplay:10.37,2013-02-25 19:04:00,
2013-02-25 11:09:00,64.8,18.9,30.19,SSW,207,3.5,3.5,17,0.00,CLR,,0.00,731.0,WeatherDisplay:10.37,2013-02-25 19:09:00,
2013-02-25 11:14:00,65.1,19.2,30.19,SSW,198,4.6,4.6,17,0.00,CLR,,0.00,737.0,WeatherDisplay:10.37,2013-02-25 19:14:00,
2013-02-25 11:19:00,65.0,20.4,30.19,SSW,210,5.0,5.0,18,0.00,CLR,,0.00,738.0,WeatherDisplay:10.37,2013-02-25 19:19:00,
2013-02-25 11:24:00,64.8,21.5,30.19,West,262,4.6,4.6,19,0.00,CLR,,0.00,742.0,WeatherDisplay:10.37,2013-02-25 19:24:00,
2013-02-25 11:29:00,64.9,21.6,30.18,West,260,4.0,4.0,19,0.00,CLR,,0.00,744.0,WeatherDisplay:10.37,2013-02-25 19:29:00,
2013-02-25 11:34:00,65.1,24.2,30.18,WSW,244,2.3,2.3,21,0.00,CLR,,0.00,744.0,WeatherDisplay:10.37,2013-02-25 19:34:00,
2013-02-25 11:39:00,65.6,23.4,30.18,WNW,299,5.8,5.8,20,0.00,CLR,,0.00,745.0,WeatherDisplay:10.37,2013-02-25 19:39:00,
2013-02-25 11:44:00,65.6,24.6,30.18,West,267,3.5,3.5,21,0.00,CLR,,0.00,751.0,WeatherDisplay:10.37,2013-02-25 19:44:00,
2013-02-25 11:49:00,65.8,22.3,30.17,SSE,158,8.1,8.1,19,0.00,CLR,,0.00,752.0,WeatherDisplay:10.37,2013-02-25 19:49:00,
2013-02-25 11:55:00,65.9,23.7,30.17,SSW,209,5.8,5.8,20,0.00,CLR,,0.00,752.0,WeatherDisplay:10.37,2013-02-25 19:55:00,
2013-02-25 12:00:00,65.9,23.7,30.17,South,184,6.0,6.0,20,0.00,CLR,,0.00,749.0,WeatherDisplay:10.37,2013-02-25 20:00:00,
2013-02-25 12:05:00,65.9,22.4,30.17,WSW,257,6.9,6.9,19,0.00,CLR,,0.00,751.0,WeatherDisplay:10.37,2013-02-25 20:05:00,
2013-02-25 12:10:00,66.2,22.7,30.16,SW,218,4.0,4.0,19,0.00,CLR,,0.00,749.0,WeatherDisplay:10.37,2013-02-25 20:10:00,
2013-02-25 12:15:00,66.5,24.2,30.16,SSE,167,8.1,8.1,20,0.00,CLR,,0.00,751.0,WeatherDisplay:10.37,2013-02-25 20:15:00,
2013-02-25 12:20:00,66.9,22.0,30.16,SSW,202,7.0,7.0,18,0.00,CLR,,0.00,751.0,WeatherDisplay:10.37,2013-02-25 20:20:00,
2013-02-25 12:25:00,67.0,19.3,30.16,West,279,5.8,5.8,16,0.00,CLR,,0.00,747.0,WeatherDisplay:10.37,2013-02-25 20:25:00,
2013-02-25 12:30:00,67.2,23.5,30.15,SSW,211,5.0,5.0,19,0.00,CLR,,0.00,740.0,WeatherDisplay:10.37,2013-02-25 20:30:00,
2013-02-25 12:35:00,67.3,22.3,30.15,WSW,242,3.5,3.5,18,0.00,CLR,,0.00,738.0,WeatherDisplay:10.37,2013-02-25 20:35:00,
2013-02-25 12:40:00,67.4,23.7,30.15,SSW,198,6.9,6.9,19,0.00,CLR,,0.00,740.0,WeatherDisplay:10.37,2013-02-25 20:40:00,
2013-02-25 12:45:00,67.3,24.8,30.15,SSW,205,6.9,6.9,20,0.00,CLR,,0.00,735.0,WeatherDisplay:10.37,2013-02-25 20:45:00,
2013-02-25 12:50:00,67.1,23.4,30.14,SSW,201,8.1,8.1,19,0.00,CLR,,0.00,729.0,WeatherDisplay:10.37,2013-02-25 20:50:00,
2013-02-25 12:55:00,67.0,24.6,30.14,SSW,202,5.8,5.8,20,0.00,CLR,,0.00,724.0,WeatherDisplay:10.37,2013-02-25 20:55:00,
2013-02-25 13:00:00,67.0,23.3,30.14,South,175,8.0,8.0,19,0.00,CLR,,0.00,721.0,WeatherDisplay:10.37,2013-02-25 21:00:00,
2013-02-25 13:05:00,66.7,23.1,30.14,SE,140,10.0,10.0,19,0.00,CLR,,0.00,714.0,WeatherDisplay:10.37,2013-02-25 21:05:00,
2013-02-25 13:10:00,66.3,24.0,30.14,South,176,10.4,10.4,20,0.00,CLR,,0.00,621.0,WeatherDisplay:10.37,2013-02-25 21:10:00,
2013-02-25 13:15:00,66.4,24.1,30.13,SE,124,4.6,4.6,20,0.00,FEW,,0.00,649.0,WeatherDisplay:10.37,2013-02-25 21:15:00,
2013-02-25 13:20:00,66.9,24.5,30.13,SW,215,12.7,12.7,20,0.00,CLR,,0.00,694.0,WeatherDisplay:10.37,2013-02-25 21:20:00,
2013-02-25 13:25:00,66.9,24.5,30.13,SSE,167,8.1,8.1,20,0.00,CLR,,0.00,684.0,WeatherDisplay:10.37,2013-02-25 21:25:00,
2013-02-25 13:30:00,67.0,24.6,30.13,SSE,162,9.2,9.2,20,0.00,CLR,,0.00,675.0,WeatherDisplay:10.37,2013-02-25 21:30:00,
2013-02-25 13:35:00,67.2,24.7,30.12,SSW,198,10.4,10.4,20,0.00,CLR,,0.00,666.0,WeatherDisplay:10.37,2013-02-25 21:35:00,
2013-02-25 13:40:00,67.4,24.9,30.12,SSE,158,10.4,10.4,20,0.00,CLR,,0.00,661.0,WeatherDisplay:10.37,2013-02-25 21:40:00,
2013-02-25 13:45:00,67.5,26.2,30.12,SE,141,8.1,8.1,21,0.00,CLR,,0.00,654.0,WeatherDisplay:10.37,2013-02-25 21:45:00,
2013-02-25 13:50:00,67.7,28.5,30.12,SSE,149,9.2,9.2,23,0.00,CLR,,0.00,645.0,WeatherDisplay:10.37,2013-02-25 21:50:00,
2013-02-25 13:55:00,67.4,28.3,30.12,South,190,10.4,10.4,23,0.00,CLR,,0.00,633.0,WeatherDisplay:10.37,2013-02-25 21:55:00,
2013-02-25 14:00:00,67.4,29.3,30.12,SSW,200,8.1,8.1,24,0.00,CLR,,0.00,622.0,WeatherDisplay:10.37,2013-02-25 22:00:00,
2013-02-25 14:05:00,67.4,28.3,30.12,WSW,255,8.1,8.1,23,0.00,CLR,,0.00,608.0,WeatherDisplay:10.37,2013-02-25 22:05:00,
2013-02-25 14:10:00,67.8,29.7,30.12,SSW,200,6.9,6.9,24,0.00,CLR,,0.00,599.0,WeatherDisplay:10.37,2013-02-25 22:10:00,
2013-02-25 14:15:00,67.8,29.7,30.12,SSW,211,8.1,8.1,24,0.00,CLR,,0.00,591.0,WeatherDisplay:10.37,2013-02-25 22:15:00,
2013-02-25 14:20:00,67.0,30.0,30.12,South,169,11.5,11.5,25,0.00,CLR,,0.00,577.0,WeatherDisplay:10.37,2013-02-25 22:20:00,
2013-02-25 14:25:00,66.8,30.8,30.12,South,189,10.4,10.4,26,0.00,CLR,,0.00,568.0,WeatherDisplay:10.37,2013-02-25 22:25:00,
2013-02-25 14:30:00,66.7,30.7,30.12,SSE,168,13.0,13.0,26,0.00,CLR,,0.00,557.0,WeatherDisplay:10.37,2013-02-25 22:30:00,
2013-02-25 14:35:00,66.5,31.5,30.12,SSW,200,10.4,10.4,27,0.00,CLR,,0.00,545.0,WeatherDisplay:10.37,2013-02-25 22:35:00,
2013-02-25 14:40:00,66.5,31.5,30.12,South,182,9.2,9.2,27,0.00,CLR,,0.00,534.0,WeatherDisplay:10.37,2013-02-25 22:40:00,
2013-02-25 14:45:00,66.3,32.2,30.12,SSW,211,9.2,9.2,28,0.00,CLR,,0.00,522.0,WeatherDisplay:10.37,2013-02-25 22:45:00,
2013-02-25 14:50:00,66.6,31.5,30.12,SSW,205,10.4,10.4,27,0.00,CLR,,0.00,515.0,WeatherDisplay:10.37,2013-02-25 22:50:00,
2013-02-25 14:55:00,66.7,31.6,30.11,SSW,211,9.2,9.2,27,0.00,CLR,,0.00,499.0,WeatherDisplay:10.37,2013-02-25 22:55:00,
2013-02-25 15:00:00,66.6,31.5,30.11,SSW,208,10.4,10.4,27,0.00,CLR,,0.00,487.0,WeatherDisplay:10.37,2013-02-25 23:00:00,
2013-02-25 15:05:00,66.6,32.5,30.11,SW,215,12.7,12.7,28,0.00,CLR,,0.00,469.0,WeatherDisplay:10.37,2013-02-25 23:05:00,
2013-02-25 15:10:00,66.7,32.5,30.11,SW,215,11.5,11.5,28,0.00,CLR,,0.00,459.0,WeatherDisplay:10.37,2013-02-25 23:10:00,
2013-02-25 15:15:00,67.0,32.8,30.11,WSW,248,13.8,13.8,28,0.00,CLR,,0.00,445.0,WeatherDisplay:10.37,2013-02-25 23:15:00,
2013-02-25 15:20:00,67.0,32.8,30.10,SW,218,11.5,11.5,28,0.00,CLR,,0.00,429.0,WeatherDisplay:10.37,2013-02-25 23:20:00,
2013-02-25 15:25:00,67.1,32.0,30.11,SSW,208,7.0,7.0,27,0.00,CLR,,0.00,411.0,WeatherDisplay:10.37,2013-02-25 23:25:00,
2013-02-25 15:30:00,67.3,34.8,30.10,SW,217,7.0,7.0,30,0.00,CLR,,0.00,397.0,WeatherDisplay:10.37,2013-02-25 23:30:00,
2013-02-25 15:35:00,67.1,35.4,30.10,SSW,207,10.4,10.4,31,0.00,CLR,,0.00,369.0,WeatherDisplay:10.37,2013-02-25 23:35:00,
2013-02-25 15:40:00,66.9,33.6,30.10,SSW,207,9.0,9.0,29,0.00,CLR,,0.00,366.0,WeatherDisplay:10.37,2013-02-25 23:40:00,
2013-02-25 15:45:00,66.9,35.3,30.10,SSW,207,7.0,7.0,31,0.00,CLR,,0.00,353.0,WeatherDisplay:10.37,2013-02-25 23:45:00,
2013-02-25 15:50:00,67.2,28.1,30.10,WSW,243,10.4,10.4,23,0.00,CLR,,0.00,339.0,WeatherDisplay:10.37,2013-02-25 23:50:00,
2013-02-25 15:55:00,66.9,28.9,30.10,SSW,205,8.1,8.1,24,0.00,CLR,,0.00,292.0,WeatherDisplay:10.37,2013-02-25 23:55:00,
2013-02-25 16:00:00,66.7,29.7,30.10,SW,219,8.1,8.1,25,0.00,CLR,,0.00,255.0,WeatherDisplay:10.37,2013-02-26 00:00:00,
2013-02-25 16:05:00,66.6,32.5,30.09,WSW,252,9.0,9.0,28,0.00,CLR,,0.00,269.0,WeatherDisplay:10.37,2013-02-26 00:05:00,
2013-02-25 16:10:00,66.1,33.7,30.09,West,269,11.0,11.0,30,0.00,CLR,,0.00,264.0,WeatherDisplay:10.37,2013-02-26 00:10:00,
2013-02-25 16:15:00,65.2,33.8,30.09,West,263,10.4,10.4,31,0.00,CLR,,0.00,262.0,WeatherDisplay:10.37,2013-02-26 00:15:00,
2013-02-25 16:20:00,64.8,35.0,30.09,WSW,242,11.5,11.5,33,0.00,CLR,,0.00,239.0,WeatherDisplay:10.37,2013-02-26 00:20:00,
2013-02-25 16:25:00,64.6,35.6,30.09,West,281,8.1,8.1,34,0.00,CLR,,0.00,216.0,WeatherDisplay:10.37,2013-02-26 00:25:00,
2013-02-25 16:30:00,64.5,36.9,30.09,WSW,252,8.1,8.1,36,0.00,CLR,,0.00,197.0,WeatherDisplay:10.37,2013-02-26 00:30:00,
2013-02-25 16:35:00,64.4,34.6,30.09,West,263,9.0,9.0,33,0.00,CLR,,0.00,178.0,WeatherDisplay:10.37,2013-02-26 00:35:00,
2013-02-25 16:40:00,64.0,35.0,30.08,WSW,257,9.2,9.2,34,0.00,CLR,,0.00,158.0,WeatherDisplay:10.37,2013-02-26 00:40:00,
2013-02-25 16:45:00,64.1,35.1,30.08,WNW,289,7.0,7.0,34,0.00,CLR,,0.00,137.0,WeatherDisplay:10.37,2013-02-26 00:45:00,
2013-02-25 16:50:00,64.0,36.5,30.09,West,259,8.1,8.1,36,0.00,CLR,,0.00,125.0,WeatherDisplay:10.37,2013-02-26 00:50:00,
2013-02-25 16:55:00,63.4,36.0,30.09,WSW,252,9.2,9.2,36,0.00,CLR,,0.00,102.0,WeatherDisplay:10.37,2013-02-26 00:55:00,
2013-02-25 17:00:00,63.1,36.4,30.08,SSW,206,8.1,8.1,37,0.00,SCT,,0.00,58.0,WeatherDisplay:10.37,2013-02-26 01:00:00,
2013-02-25 17:05:00,62.7,36.0,30.08,SSW,205,7.0,7.0,37,0.00,SCT,,0.00,62.0,WeatherDisplay:10.37,2013-02-26 01:05:00,
2013-02-25 17:10:00,62.5,37.2,30.08,WSW,252,5.8,5.8,39,0.00,SCT,,0.00,53.0,WeatherDisplay:10.37,2013-02-26 01:10:00,
2013-02-25 17:15:00,62.4,37.7,30.08,WSW,239,6.9,6.9,40,0.00,SCT,,0.00,39.0,WeatherDisplay:10.37,2013-02-26 01:15:00,
2013-02-25 17:20:00,62.2,37.6,30.08,SW,221,3.5,3.5,40,0.00,SCT,,0.00,28.0,WeatherDisplay:10.37,2013-02-26 01:20:00,
2013-02-25 17:25:00,62.0,38.6,30.08,WSW,252,8.0,8.0,42,0.00,BKN,,0.00,19.0,WeatherDisplay:10.37,2013-02-26 01:25:00,
2013-02-25 17:30:00,61.3,38.6,30.08,WSW,248,8.1,8.1,43,0.00,SCT,,0.00,16.0,WeatherDisplay:10.37,2013-02-26 01:30:00,
2013-02-25 17:35:00,61.0,39.5,30.08,WSW,240,3.5,3.5,45,0.00,SCT,,0.00,12.0,WeatherDisplay:10.37,2013-02-26 01:35:00,
2013-02-25 17:40:00,60.7,39.8,30.08,WSW,240,4.6,4.6,46,0.00,CLR,,0.00,9.0,WeatherDisplay:10.37,2013-02-26 01:40:00,
2013-02-25 17:45:00,60.2,39.9,30.07,West,279,7.0,7.0,47,0.00,CLR,,0.00,5.0,WeatherDisplay:10.37,2013-02-26 01:45:00,
2013-02-25 17:50:00,59.8,40.1,30.07,WSW,258,5.8,5.8,48,0.00,CLR,,0.00,0.0,WeatherDisplay:10.37,2013-02-26 01:50:00,
2013-02-25 17:55:00,59.5,40.3,30.07,WSW,248,4.6,4.6,49,0.00,CLR,,0.00,0.0,WeatherDisplay:10.37,2013-02-26 01:55:00,
2013-02-25 18:00:00,59.3,40.1,30.07,WSW,244,4.6,4.6,49,0.00,CLR,,0.00,0.0,WeatherDisplay:10.37,2013-02-26 02:00:00,
2013-02-25 18:05:00,59.1,39.9,30.07,WSW,257,6.0,6.0,49,0.00,CLR,,0.00,0.0,WeatherDisplay:10.37,2013-02-26 02:05:00,
2013-02-25 18:10:00,58.9,39.2,30.07,WSW,255,4.6,4.6,48,0.00,CLR,,0.00,0.0,WeatherDisplay:10.37,2013-02-26 02:10:00,
2013-02-25 18:15:00,58.7,39.0,30.07,WSW,257,3.5,3.5,48,0.00,CLR,,0.00,0.0,WeatherDisplay:10.37,2013-02-26 02:15:00,
2013-02-25 18:20:00,58.6,38.4,30.08,West,263,4.6,4.6,47,0.00,CLR,,0.00,0.0,WeatherDisplay:10.37,2013-02-26 02:20:00,
2013-02-25 18:25:00,58.4,38.2,30.08,WSW,257,3.5,3.5,47,0.00,CLR,,0.00,0.0,WeatherDisplay:10.37,2013-02-26 02:25:00,
2013-02-25 18:30:00,58.3,37.6,30.08,WSW,255,5.0,5.0,46,0.00,CLR,,0.00,0.0,WeatherDisplay:10.37,2013-02-26 02:30:00,
2013-02-25 18:36:00,58.1,37.4,30.08,WSW,255,3.5,3.5,46,0.00,CLR,,0.00,0.0,WeatherDisplay:10.37,2013-02-26 02:36:00,
2013-02-25 18:41:00,58.0,37.3,30.08,WSW,254,3.5,3.5,46,0.00,CLR,,0.00,0.0,WeatherDisplay:10.37,2013-02-26 02:41:00,
2013-02-25 18:46:00,57.9,37.2,30.08,WSW,253,3.5,3.5,46,0.00,CLR,,0.00,0.0,WeatherDisplay:10.37,2013-02-26 02:46:00,
2013-02-25 18:51:00,57.8,37.7,30.08,WSW,254,3.5,3.5,47,0.00,CLR,,0.00,0.0,WeatherDisplay:10.37,2013-02-26 02:51:00,
2013-02-25 18:56:00,57.7,37.6,30.08,WSW,254,3.0,3.0,47,0.00,CLR,,0.00,0.0,WeatherDisplay:10.37,2013-02-26 02:56:00,
2013-02-25 19:01:00,57.6,38.0,30.08,West,279,3.5,3.5,48,0.00,CLR,,0.00,0.0,WeatherDisplay:10.37,2013-02-26 03:01:00,
2013-02-25 19:06:00,57.4,37.9,30.08,West,279,3.5,3.5,48,0.00,CLR,,0.00,0.0,WeatherDisplay:10.37,2013-02-26 03:06:00,
2013-02-25 19:11:00,57.3,37.8,30.08,West,276,3.5,3.5,48,0.00,CLR,,0.00,0.0,WeatherDisplay:10.37,2013-02-26 03:11:00,
2013-02-25 19:16:00,57.2,38.2,30.09,West,274,2.3,2.3,49,0.00,CLR,,0.00,0.0,WeatherDisplay:10.37,2013-02-26 03:16:00,
2013-02-25 19:21:00,56.9,38.4,30.09,West,271,3.5,3.5,50,0.00,CLR,,0.00,0.0,WeatherDisplay:10.37,2013-02-26 03:21:00,
2013-02-25 19:26:00,56.7,38.3,30.09,West,271,1.1,1.1,50,0.00,CLR,,0.00,0.0,WeatherDisplay:10.37,2013-02-26 03:26:00,
2013-02-25 19:31:00,56.4,39.0,30.10,West,271,1.1,1.1,52,0.00,CLR,,0.00,0.0,WeatherDisplay:10.37,2013-02-26 03:31:00,
2013-02-25 19:36:00,56.3,38.9,30.10,West,271,1.1,1.1,52,0.00,CLR,,0.00,0.0,WeatherDisplay:10.37,2013-02-26 03:36:00,
2013-02-25 19:41:00,56.1,38.7,30.10,West,271,1.1,1.1,52,0.00,CLR,,0.00,0.0,WeatherDisplay:10.37,2013-02-26 03:41:00,
2013-02-25 19:46:00,55.9,38.0,30.10,West,265,3.5,3.5,51,0.00,CLR,,0.00,0.0,WeatherDisplay:10.37,2013-02-26 03:46:00,
2013-02-25 19:51:00,56.0,38.1,30.10,West,272,3.5,3.5,51,0.00,CLR,,0.00,0.0,WeatherDisplay:10.37,2013-02-26 03:51:00,
2013-02-25 19:56:00,56.0,38.6,30.10,West,273,3.5,3.5,52,0.00,CLR,,0.00,0.0,WeatherDisplay:10.37,2013-02-26 03:56:00,
2013-02-25 20:01:00,55.9,38.5,30.10,West,273,2.3,2.3,52,0.00,CLR,,0.00,0.0,WeatherDisplay:10.37,2013-02-26 04:01:00,
2013-02-25 20:06:00,55.8,38.4,30.10,West,273,1.1,1.1,52,0.00,CLR,,0.00,0.0,WeatherDisplay:10.37,2013-02-26 04:06:00,
2013-02-25 20:11:00,55.5,38.6,30.10,West,273,0.0,0.0,53,0.00,CLR,,0.00,0.0,WeatherDisplay:10.37,2013-02-26 04:11:00,
2013-02-25 20:16:00,55.3,38.9,30.10,West,273,1.1,0.0,54,0.00,CLR,,0.00,0.0,WeatherDisplay:10.37,2013-02-26 04:16:00,
2013-02-25 20:21:00,55.0,38.6,30.10,West,273,0.0,0.0,54,0.00,CLR,,0.00,0.0,WeatherDisplay:10.37,2013-02-26 04:21:00,
2013-02-25 20:26:00,54.8,39.4,30.10,West,271,2.3,2.3,56,0.00,CLR,,0.00,0.0,WeatherDisplay:10.37,2013-02-26 04:26:00,
2013-02-25 20:31:00,54.8,39.8,30.10,West,269,2.0,2.0,57,0.00,CLR,,0.00,0.0,WeatherDisplay:10.37,2013-02-26 04:31:00,
2013-02-25 20:36:00,54.8,40.3,30.10,West,269,0.0,0.0,58,0.00,CLR,,0.00,0.0,WeatherDisplay:10.37,2013-02-26 04:36:00,
2013-02-25 20:41:00,54.5,40.0,30.10,West,269,0.0,0.0,58,0.00,CLR,,0.00,0.0,WeatherDisplay:10.37,2013-02-26 04:41:00,
2013-02-25 20:46:00,54.2,40.2,30.10,West,269,0.0,0.0,59,0.00,CLR,,0.00,0.0,WeatherDisplay:10.37,2013-02-26 04:46:00,
2013-02-25 20:51:00,53.9,39.9,30.10,West,269,0.0,0.0,59,0.00,CLR,,0.00,0.0,WeatherDisplay:10.37,2013-02-26 04:51:00,
2013-02-25 20:56:00,53.5,39.9,30.10,West,269,0.0,0.0,60,0.00,CLR,,0.00,0.0,WeatherDisplay:10.37,2013-02-26 04:56:00,
2013-02-25 21:00:00,53.2,40.1,30.10,West,269,0.0,0.0,61,0.00,CLR,,0.00,0.0,WeatherDisplay:10.37,2013-02-26 05:00:00,
2013-02-25 21:01:00,53.1,40.0,30.10,West,269,0.0,0.0,61,0.00,CLR,,0.00,0.0,WeatherDisplay:10.37,2013-02-26 05:01:00,
2013-02-25 21:06:00,52.8,40.5,30.10,West,269,0.0,0.0,63,0.00,CLR,,0.00,0.0,WeatherDisplay:10.37,2013-02-26 05:06:00,
2013-02-25 21:11:00,52.7,40.9,30.10,West,269,1.1,0.0,64,0.00,CLR,,0.00,0.0,WeatherDisplay:10.37,2013-02-26 05:11:00,
2013-02-25 21:16:00,52.6,41.2,30.11,West,269,1.1,0.0,65,0.00,CLR,,0.00,0.0,WeatherDisplay:10.37,2013-02-26 05:16:00,
2013-02-25 21:21:00,52.5,41.1,30.10,West,269,0.0,0.0,65,0.00,CLR,,0.00,0.0,WeatherDisplay:10.37,2013-02-26 05:21:00,
2013-02-25 21:26:00,52.2,40.8,30.11,West,269,0.0,0.0,65,0.00,CLR,,0.00,0.0,WeatherDisplay:10.37,2013-02-26 05:26:00,
2013-02-25 21:31:00,51.9,40.5,30.11,West,269,1.1,1.1,65,0.00,CLR,,0.00,0.0,WeatherDisplay:10.37,2013-02-26 05:31:00,
2013-02-25 21:36:00,51.5,40.5,30.11,West,269,0.0,0.0,66,0.00,CLR,,0.00,0.0,WeatherDisplay:10.37,2013-02-26 05:36:00,
2013-02-25 21:41:00,51.2,40.2,30.11,West,269,0.0,0.0,66,0.00,CLR,,0.00,0.0,WeatherDisplay:10.37,2013-02-26 05:41:00,
2013-02-25 21:46:00,50.9,40.3,30.11,West,269,0.0,0.0,67,0.00,CLR,,0.00,0.0,WeatherDisplay:10.37,2013-02-26 05:46:00,
2013-02-25 21:51:00,50.6,40.4,30.11,West,269,2.3,2.3,68,0.00,CLR,,0.00,0.0,WeatherDisplay:10.37,2013-02-26 05:51:00,
2013-02-25 21:56:00,50.2,40.0,30.11,West,269,2.3,2.3,68,0.00,CLR,,0.00,0.0,WeatherDisplay:10.37,2013-02-26 05:56:00,
2013-02-25 22:01:00,50.0,39.8,30.11,West,269,0.0,0.0,68,0.00,CLR,,0.00,0.0,WeatherDisplay:10.37,2013-02-26 06:01:00,
2013-02-25 22:06:00,49.8,39.7,30.11,West,269,0.0,0.0,68,0.00,CLR,,0.00,0.0,WeatherDisplay:10.37,2013-02-26 06:06:00,
2013-02-25 22:11:00,49.6,39.5,30.11,West,269,1.1,0.0,68,0.00,CLR,,0.00,0.0,WeatherDisplay:10.37,2013-02-26 06:11:00,
2013-02-25 22:16:00,49.6,39.5,30.11,West,269,2.3,2.3,68,0.00,CLR,,0.00,0.0,WeatherDisplay:10.37,2013-02-26 06:16:00,
2013-02-25 22:21:00,49.5,39.4,30.11,West,269,1.1,0.0,68,0.00,CLR,,0.00,0.0,WeatherDisplay:10.37,2013-02-26 06:21:00,
2013-02-25 22:26:00,49.4,39.3,30.11,West,269,1.1,0.0,68,0.00,CLR,,0.00,0.0,WeatherDisplay:10.37,2013-02-26 06:26:00,
2013-02-25 22:31:00,49.1,39.0,30.11,West,269,1.1,1.1,68,0.00,CLR,,0.00,0.0,WeatherDisplay:10.37,2013-02-26 06:31:00,
2013-02-25 22:36:00,49.0,38.9,30.11,WNW,285,1.1,1.1,68,0.00,CLR,,0.00,0.0,WeatherDisplay:10.37,2013-02-26 06:36:00,
2013-02-25 22:41:00,49.0,38.9,30.11,WNW,285,0.0,0.0,68,0.00,CLR,,0.00,0.0,WeatherDisplay:10.37,2013-02-26 06:41:00,
2013-02-25 22:46:00,48.9,39.2,30.11,WNW,285,1.1,1.1,69,0.00,CLR,,0.00,0.0,WeatherDisplay:10.37,2013-02-26 06:46:00,
2013-02-25 22:51:00,48.8,39.1,30.11,WNW,287,1.1,1.1,69,0.00,CLR,,0.00,0.0,WeatherDisplay:10.37,2013-02-26 06:51:00,
2013-02-25 22:56:00,48.7,39.4,30.11,WNW,287,1.1,1.1,70,0.00,CLR,,0.00,0.0,WeatherDisplay:10.37,2013-02-26 06:56:00,
2013-02-25 23:01:00,48.7,39.7,30.11,WNW,297,3.5,3.5,71,0.00,CLR,,0.00,0.0,WeatherDisplay:10.37,2013-02-26 07:01:00,
2013-02-25 23:06:00,48.6,39.6,30.11,WNW,297,1.1,1.1,71,0.00,CLR,,0.00,0.0,WeatherDisplay:10.37,2013-02-26 07:06:00,
2013-02-25 23:11:00,48.6,40.0,30.10,WNW,297,1.1,1.1,72,0.00,CLR,,0.00,0.0,WeatherDisplay:10.37,2013-02-26 07:11:00,
2013-02-25 23:16:00,48.5,40.2,30.10,WNW,297,2.3,2.3,73,0.00,CLR,,0.00,0.0,WeatherDisplay:10.37,2013-02-26 07:16:00,
2013-02-25 23:21:00,48.4,40.5,30.10,WNW,297,0.0,0.0,74,0.00,CLR,,0.00,0.0,WeatherDisplay:10.37,2013-02-26 07:21:00,
2013-02-25 23:26:00,48.4,40.5,30.10,WNW,297,0.0,0.0,74,0.00,CLR,,0.00,0.0,WeatherDisplay:10.37,2013-02-26 07:26:00,
2013-02-25 23:31:00,48.3,40.7,30.10,WNW,297,0.0,0.0,75,0.00,CLR,,0.00,0.0,WeatherDisplay:10.37,2013-02-26 07:31:00,
2013-02-25 23:36:00,48.2,40.6,30.10,WNW,297,1.1,1.1,75,0.00,CLR,,0.00,0.0,WeatherDisplay:10.37,2013-02-26 07:36:00,
2013-02-25 23:41:00,48.1,40.9,30.10,WNW,297,0.0,0.0,76,0.00,CLR,,0.00,0.0,WeatherDisplay:10.37,2013-02-26 07:41:00,
2013-02-25 23:46:00,47.9,40.7,30.10,WNW,297,1.1,1.1,76,0.00,CLR,,0.00,0.0,WeatherDisplay:10.37,2013-02-26 07:46:00,
2013-02-25 23:51:00,47.8,40.9,30.10,WNW,297,0.0,0.0,77,0.00,CLR,,0.00,0.0,WeatherDisplay:10.37,2013-02-26 07:51:00,
2013-02-25 23:56:00,47.6,40.4,30.10,WNW,297,1.1,1.1,76,0.00,CLR,,0.00,0.0,WeatherDisplay:10.37,2013-02-26 07:56:00,